OBJECT F, 43836

Orbit data source: Space-Track

You're viewing an Uncataloged Satellite

Recently launched and/or uncataloged satellites may have evolving metadata. Metadata may include but not limited to: Owner, Maufacturer, Bus, Motor, and Mission.

OBJECT F, 43836 is a satellite in SSO that was launched on Fri, 07 Dec 2018 UTC via a CHANG ZHENG 2D launch vehicle from the Jiuquan Satellite Launch Center, China (JSC). Unknown objects in Earth's orbit typically refer to objects detected orbiting the Earth but have not yet been identified or cataloged. These objects could be anything from previously untracked satellites, spent rocket stages, debris from satellite collisions, or even natural meteoroids temporarily captured by Earth's gravity.

Not visible in the next 10 days
OBJECT F details
Identifier
43836, 2018-102F
Orbit
SSO
Last TLE update1 day ago
Origin
Flag of TBDBTWK/OFO (TBD)
ManufacturerJiutian
MissionCommercial Communications
Bus & MotorPIAOCHONG, Unknown motor
Mass100 kg wet, 100 kg dry
Launch date (UTC)
2018-12-07 (6 years ago)
Launch vehicle
CHANG ZHENG 2D
Launch site
Jiuquan Satellite Launch Center, China (JSC)
Object typeUnknown
Shape & HBRBox, 1 m
Radar Cross Section1.500 m², Medium (>0.1 m² and < 1m²)

Expand to show TLE details & history

TLE from 1 day ago
0 OBJECT F
1 43836U 18102F   24360.02911807  .00347976  00000-0  19360-2 0  9996
2 43836  97.4135  85.3676 0004519 218.5727 141.5217 15.78513478334898
Epoch: 2024-12-25T00:41Z
Definitive object data (Epoch: 2024-12-25T00:41:55.801Z)
Latitude-0.00004°
Longitude-19.14364°
Altitude340.197 km
Speed7.703 km/s
True Right ascension05h 41m 28s
True Declination0° 00' 00"
Sunlit
Object was in full shadow at TLE epoch
Visualization TLE readout
Latitude39.52606°
Longitude-23.76734°
Altitude340.853 km
Speed7.706 km/s
Apparent Right ascension01h 42m 22s
Apparent Declination1° 57' 08"
Sunlit
Object is in full shadow
Visualization observer readout
Local Sidereal Time09:40:52
Azimuth291.549° WNW
Elevation-20.917°
Doppler factor1
Orbital elements
Apogee altitude334.572 km
Perigee altitude328.508 km
Semi-major axis6,709.677 km
Eccentricity0.0004519
Inclination97.4135°
RAAN85.3676°
Arg. of periapsis218.5727°
True anomaly141.55391°
Mean anomaly141.5217°
Eccentric anomaly141.5378°
Mean motion3.94903 °/min
BSTAR0.001936
Orbital period91.16 mins
Loading maneuver chart data...
Loading historical data...
Loading historical data...
Loading historical data...
Loading historical data...
Loading historical data...
Loading historical data...
Loading historical data...

OBJECT F Visibility forecast

Observer location: undefined°, undefined

OBJECT F is not visible in the next 10 days
Span
Click to sort rows by Start time (UTC) header in descending order
Start Az.
Max El. time (UTC)
Max El. Az.
Max El.
End time (UTC)
End Az.
|